Location: ????????
(48.4751°N, 37.6926°E)
Time: 13:22:15
(UTC+00:00)

Lacrosse 5 - Pass Details

Date: 20 January 2021
Orbit: 715 x 724 km, 57.0° (Epoch: 22 February)

Event Time Altitude Azimuth Distance (km) Brightness Sun altitude
Rises 17:38:36 0° 298° (WNW) 3,123 6.1 -34.3°
Reaches altitude 10° 17:41:29 10° 283° (WNW) 2,199 5.2 -34.7°
Enters shadow 17:45:00 21° 239° (WSW) 1,587 4.0 -35.3°
